TimeEST,TemperatureF,Dew PointF,Humidity,Sea Level PressureIn,VisibilityMPH,Wind Direction,Wind SpeedMPH,Gust SpeedMPH,PrecipitationIn,Events,Conditions,WindDirDegrees,DateUTC
12:28 AM,73.4,69.8,88,30.00,10.0,NNW,9.2,-,N/A,,Overcast,330,2012-02-20 05:28:00
12:53 AM,73.0,69.1,87,30.00,10.0,NNW,9.2,-,N/A,,Overcast,340,2012-02-20 05:53:00
1:10 AM,73.4,69.8,88,30.00,10.0,NNW,8.1,-,N/A,,Overcast,330,2012-02-20 06:10:00
1:53 AM,73.0,68.0,84,30.00,10.0,NNW,11.5,-,N/A,,Overcast,340,2012-02-20 06:53:00
2:53 AM,73.0,66.9,81,29.99,10.0,NNW,10.4,-,N/A,,Overcast,330,2012-02-20 07:53:00
3:53 AM,72.0,66.0,81,29.99,10.0,NNW,11.5,-,N/A,,Overcast,340,2012-02-20 08:53:00
4:53 AM,72.0,64.9,78,30.00,10.0,NNW,10.4,-,N/A,,Overcast,340,2012-02-20 09:53:00
5:53 AM,71.1,64.0,78,30.01,10.0,North,9.2,-,N/A,,Overcast,350,2012-02-20 10:53:00
6:53 AM,70.0,63.0,78,30.03,10.0,North,10.4,-,N/A,,Overcast,350,2012-02-20 11:53:00
7:53 AM,71.1,63.0,75,30.06,10.0,North,9.2,-,N/A,,Overcast,350,2012-02-20 12:53:00
8:53 AM,70.0,62.1,76,30.08,10.0,North,11.5,-,N/A,,Overcast,350,2012-02-20 13:53:00
9:53 AM,72.0,62.1,71,30.09,10.0,North,10.4,-,N/A,,Overcast,10,2012-02-20 14:53:00
10:53 AM,73.0,61.0,66,30.11,10.0,North,9.2,20.7,N/A,,Overcast,360,2012-02-20 15:53:00
11:17 AM,73.4,60.8,65,30.11,10.0,North,11.5,20.7,N/A,,Scattered Clouds,10,2012-02-20 16:17:00
11:53 AM,72.0,61.0,68,30.10,10.0,North,11.5,-,N/A,,Clear,360,2012-02-20 16:53:00
12:53 PM,73.0,61.0,66,30.09,10.0,North,10.4,-,N/A,,Clear,360,2012-02-20 17:53:00
1:53 PM,72.0,60.1,66,30.09,10.0,North,13.8,-,N/A,,Clear,10,2012-02-20 18:53:00
2:53 PM,73.0,61.0,66,30.07,10.0,North,10.4,-,N/A,,Clear,10,2012-02-20 19:53:00
3:53 PM,73.0,61.0,66,30.08,10.0,NE,6.9,-,N/A,,Clear,40,2012-02-20 20:53:00
4:53 PM,72.0,60.1,66,30.09,10.0,North,6.9,-,N/A,,Clear,360,2012-02-20 21:53:00
5:53 PM,70.0,60.1,71,30.09,10.0,North,6.9,-,N/A,,Clear,10,2012-02-20 22:53:00
6:53 PM,68.0,59.0,73,30.11,10.0,NNE,4.6,-,N/A,,Clear,30,2012-02-20 23:53:00
7:53 PM,68.0,60.1,76,30.12,10.0,NNE,4.6,-,N/A,,Clear,30,2012-02-21 00:53:00
8:53 PM,69.8,60.8,73,30.14,10.0,NE,5.8,-,N/A,,Clear,40,2012-02-21 01:53:00
9:53 PM,69.1,61.0,75,30.15,10.0,ENE,6.9,-,N/A,,Clear,60,2012-02-21 02:53:00
10:53 PM,69.1,62.1,78,30.16,10.0,ENE,4.6,-,N/A,,Partly Cloudy,70,2012-02-21 03:53:00
11:53 PM,70.0,62.1,76,30.15,10.0,ENE,6.9,-,N/A,,Mostly Cloudy,60,2012-02-21 04:53:00